User: anonymous   Login
Location: Unspecified
(0.0000°N, 0.0000°E)
Time: 17:29:20
(UTC+00:00)
Language:

TSUBAME - Orbit

View from above orbital plane
View from above orbital plane
View from above satellite
View from above satellite

Ground track
Ground track

The orbit data is extracted from the following two-line orbital elements,

1 40302U 14070E   21337.10696433  .00002255  00000-0  10779-3 0  9990
2 40302  97.1695   6.7035 0036734 183.1379 261.8047 15.19394531391578
Epoch (UTC): 03 December 2021 02:34:01
Eccentricity: 0.0036734
inclination: 97.1695°
perigee height: 482 km
apogee height: 533 km
right ascension of ascending node: 6.7035°
argument of perigee: 183.1379°
revolutions per day: 15.19394531
mean anomaly at epoch: 261.8047°
orbit number at epoch: 39157

The dashed part of the orbit path shows where the satellite is in the earth's shadow,  

DLR